GW1174 Weather Reports


time (UTC)temp
C
wind
direction
speed
KPH
gust
KPH
rain 1hr
cm
rain 24hr
cm
rain mn
cm
humidity
%
barometer
mb
20260903174017 18 199 6.4 8.0 0.00 0.51 0.51 53 1088.1
20260903173017 17 203 6.4 8.0 0.00 0.51 0.51 54 1088.9
20260903172017 17 206 6.4 8.0 0.00 0.51 0.51 54 1089.6
20260903171018 16 90 1.6 4.8 0.05 0.53 0.53 92 1019.2
20260903170017 16 214 6.4 8.0 0.00 0.51 0.51 56 1091.2
20260903165017 16 218 6.4 8.0 0.00 0.51 0.51 56 1091.9
20260903164017 16 222 6.4 8.0 0.00 0.51 0.51 57 1092.7
20260903163017 15 226 6.4 8.0 0.00 0.51 0.51 58 1093.4
20260903162017 15 229 6.4 6.4 0.00 0.51 0.51 58 1094.2
20260903161017 15 233 6.4 6.4 0.00 0.51 0.51 59 1094.9
20260903160037 14 237 4.8 6.4 0.00 0.51 0.51 59 1095.7
20260903155017 13 241 4.8 6.4 0.00 0.51 0.51 60 1096.4
20260903154017 13 244 4.8 6.4 0.00 0.51 0.51 61 1097.1
20260903153017 12 248 4.8 6.4 0.00 0.51 0.51 61 1097.8
20260903152017 12 252 4.8 6.4 0.00 0.51 0.51 62 1098.6
20260903151017 12 255 4.8 6.4 0.00 0.51 0.51 63 1099.3
20260903150017 11 259 4.8 4.8 0.00 0.51 0.51 63 1100.0
20260903145017 11 262 4.8 4.8 0.00 0.51 0.51 64 1100.7
20260903144018 16 270 1.6 4.8 0.15 0.23 0.23 87 1020.2
20260903143019 17 293 4.8 9.7 0.15 0.20 0.20 86 1020.5
20260903143017 10 269 4.8 4.8 0.00 0.51 0.51 65 1102.0
20260903142017 17 225 4.8 6.4 0.15 0.18 0.18 84 1020.5
20260903141018 17 203 4.8 6.4 0.15 0.15 0.15 84 1020.3
20260903140018 17 225 6.4 9.7 0.13 0.13 0.13 82 1020.3
20260903135037 8 282 3.2 4.8 0.00 0.51 0.51 67 1104.7
20260903134038 17 225 4.8 6.4 0.08 0.08 0.08 80 1020.5
20260903133017 7 289 3.2 3.2 0.00 0.51 0.51 68 1105.9
20260903132019 18 225 6.4 12.9 0.03 0.03 0.03 73 1020.8
20260903132017 6 292 3.2 3.2 0.00 0.51 0.51 69 1106.5
20260903131017 20 225 9.7 17.7 0.00 0.00 0.00 70 1020.9
20260903130017 6 298 3.2 3.2 0.00 0.51 0.51 70 1107.7
20260903125037 5 301 3.2 3.2 0.00 0.51 0.51 70 1108.3
20260903125017 21 225 9.7 17.7 0.00 0.00 0.00 61 1020.6
20260903124017 21 203 8.0 16.1 0.00 0.00 0.00 61 1020.4
20260903123017 4 307 1.6 3.2 0.00 0.51 0.51 71 1109.4
20260903122038 21 248 14.5 25.7 0.00 0.00 0.00 60 1020.5
20260903122017 3 309 1.6 3.2 0.00 0.51 0.51 72 1110.0
20260903121018 22 248 14.5 29.0 0.00 0.00 0.00 56 1020.9
20260903120037 22 270 11.3 24.1 0.00 0.00 0.00 58 1020.9
20260903120017 3 315 1.6 3.2 0.00 0.51 0.51 72 1111.0
20260903115037 2 317 1.6 1.6 0.00 0.51 0.51 73 1111.5
20260903114017 2 320 1.6 1.6 0.00 0.51 0.51 73 1112.0
20260903113017 21 270 8.0 16.1 0.00 0.00 0.00 62 1020.9
20260903112037 21 248 9.7 20.9 0.00 0.00 0.00 59 1021.1
20260903112017 1 325 1.6 1.6 0.00 0.51 0.51 74 1113.0
20260903111017 1 327 1.6 1.6 0.00 0.51 0.51 74 1113.4
20260903110037 21 248 11.3 20.9 0.00 0.00 0.00 59 1021.1
20260903110017 1 329 1.6 1.6 0.00 0.51 0.51 75 1113.9
20260903105017 21 270 9.7 20.9 0.00 0.00 0.00 59 1021.1
20260903104017 0 333 1.6 1.6 0.00 0.51 0.51 76 1114.7
20260903103017 0 335 1.6 1.6 0.00 0.51 0.51 76 1115.1
20260903102017 0 337 1.6 1.6 0.00 0.51 0.51 76 1115.5
20260903101017 0 339 1.6 1.6 0.00 0.51 0.51 77 1115.9
20260903100017 0 341 1.6 1.6 0.00 0.51 0.51 77 1116.2
20260903095017 21 315 6.4 14.5 0.00 0.00 0.00 57 1021.4
20260903094017 21 248 9.7 16.1 0.00 0.00 0.00 54 1021.3
20260903093017 21 203 6.4 14.5 0.00 0.00 0.00 57 1021.4
20260903092017 0 347 0.0 0.0 0.00 0.51 0.51 78 1117.5
20260903091017 -1 349 0.0 0.0 0.00 0.51 0.51 78 1117.8
20260903090017 -1 350 0.0 0.0 0.00 0.51 0.51 78 1118.0
20260903085017 -1 351 0.0 0.0 0.00 0.51 0.51 79 1118.3
20260903084017 20 248 6.4 14.5 0.00 0.00 0.00 62 1021.8
20260903083017 -1 354 0.0 0.0 0.00 0.51 0.51 79 1118.7
20260903082037 -1 355 0.0 0.0 0.00 0.51 0.51 79 1118.9
20260903081017 20 180 3.2 16.1 0.00 0.00 0.00 67 1021.3
20260903080017 19 158 6.4 11.3 0.00 0.00 0.00 67 1021.3
20260903075017 -1 357 0.0 0.0 0.00 0.51 0.51 80 1119.4
20260903074017 -1 358 0.0 0.0 0.00 0.51 0.51 80 1119.5
20260903073017 0 358 0.0 0.0 0.00 0.51 0.51 80 1119.7
20260903072017 0 359 0.0 0.0 0.00 0.51 0.51 80 1119.8
20260903071017 0 359 0.0 0.0 0.00 0.51 0.51 80 1119.8
20260903070017 14 0.0 0.0 0.00 0.00 0.00 92 1021.3
20260903065057 0 360 0.0 0.0 0.00 0.51 0.51 80 1119.9
20260903065037 13 0.0 0.0 0.00 0.00 0.00 92 1021.5
20260903064017 12 0.0 0.0 0.00 0.00 0.00 92 1021.6
20260903063017 0 360 0.0 0.0 0.00 0.51 0.51 80 1120.0
20260903062016 11 0.0 0.0 0.00 0.00 0.00 92 1021.6
20260903061017 1 360 0.0 0.0 0.00 0.51 0.51 80 1120.0
20260903060038 1 360 0.0 0.0 0.00 0.51 0.51 80 1119.9
20260903055017 1 359 0.0 0.0 0.00 0.51 0.51 80 1119.9
20260903054017 10 0.0 0.0 0.00 0.00 0.00 92 1021.2
20260903053017 2 359 0.0 0.0 0.00 0.51 0.51 80 1119.7
20260903052057 2 358 0.0 0.0 0.00 0.51 0.51 80 1119.6
20260903051017 10 0.0 0.0 0.00 0.00 0.00 91 1021.1
20260903050017 3 357 0.0 0.0 0.00 0.51 0.51 79 1119.3
20260903045017 3 356 0.0 0.0 0.00 0.51 0.51 79 1119.2
20260903044016 3 355 0.0 0.0 0.00 0.51 0.51 79 1119.0
20260903043017 4 354 0.0 0.0 0.00 0.51 0.51 79 1118.8
20260903042037 5 353 0.0 0.0 0.00 0.51 0.51 79 1118.6
20260903041018 10 0.0 0.0 0.00 0.00 0.00 91 1021.0
20260903040017 5 351 0.0 0.0 0.00 0.51 0.51 78 1118.2
20260903035017 6 349 0.0 0.0 0.00 0.51 0.51 78 1117.9
20260903034017 6 348 0.0 0.0 0.00 0.51 0.51 78 1117.6
20260903033016 11 0.0 0.0 0.00 0.00 0.00 91 1021.1
20260903032017 7 345 0.0 1.6 0.00 0.51 0.51 78 1117.0
20260903031017 7 344 0.0 1.6 0.00 0.51 0.51 77 1116.7
20260903030017 8 342 1.6 1.6 0.00 0.51 0.51 77 1116.4
20260903025017 8 340 1.6 1.6 0.00 0.51 0.51 77 1116.1
20260903024037 9 338 1.6 1.6 0.00 0.51 0.51 76 1115.7
20260903023017 10 336 1.6 1.6 0.00 0.51 0.51 76 1115.3
20260903022016 10 334 1.6 1.6 0.00 0.51 0.51 76 1114.9
20260903021037 11 332 1.6 1.6 0.00 0.51 0.51 75 1114.5
20260903020017 11 330 1.6 1.6 0.00 0.51 0.51 75 1114.1
20260903015017 11 328 1.6 1.6 0.03 0.51 0.51 75 1113.7
20260903014016 13 0.0 0.0 0.00 0.00 0.00 89 1021.5
20260903013017 12 323 1.6 1.6 0.08 0.51 0.51 74 1112.7
20260903012017 13 321 1.6 1.6 0.10 0.51 0.51 73 1112.3
20260903011019 13 0.0 0.0 0.00 0.00 0.00 88 1021.5
20260903011017 13 318 1.6 1.6 0.13 0.51 0.51 73 1111.8
20260903010017 13 316 1.6 1.6 0.15 0.51 0.51 73 1111.3
20260903005017 14 313 1.6 3.2 0.15 0.51 0.48 72 1110.8
20260903004037 15 311 1.6 3.2 0.15 0.51 0.46 72 1110.2
20260903003017 15 308 1.6 3.2 0.18 0.51 0.43 71 1109.7
20260903002017 16 305 3.2 3.2 0.18 0.51 0.41 71 1109.1
20260903001017 16 302 3.2 3.2 0.18 0.51 0.38 70 1108.6
20260903000037 16 299 3.2 3.2 0.18 0.51 0.36 70 1108.0
20260902235037 17 296 3.2 3.2 0.18 0.51 0.33 69 1107.4
20260902234017 17 293 3.2 3.2 0.18 0.51 0.30 69 1106.8
20260902233016 14 0.0 1.6 0.00 0.00 0.00 87 1021.6
20260902232018 14 0.0 1.6 0.00 0.00 0.00 87 1021.7
20260902231038 14 0.0 1.6 0.00 0.00 0.00 87 1021.7
20260902230018 14 0.0 0.0 0.00 0.00 0.00 87 1021.6
20260902225018 14 0.0 0.0 0.00 0.00 0.00 86 1021.5
20260902224018 15 0.0 0.0 0.00 0.00 0.00 86 1021.5
20260902223018 15 0.0 0.0 0.00 0.00 0.00 86 1021.6
20260902222017 20 267 4.8 4.8 0.08 0.51 0.08 65 1101.7
20260902221017 20 264 4.8 4.8 0.05 0.51 0.05 64 1101.0
20260902220018 14 0.0 0.0 0.00 0.00 0.00 85 1021.5
20260902215037 20 257 4.8 4.8 0.00 0.51 0.51 63 1099.6
20260902214017 14 0.0 0.0 0.00 0.00 0.00 85 1021.5
20260902213017 20 250 4.8 6.4 0.00 0.51 0.51 62 1098.2
20260902212037 20 246 4.8 6.4 0.00 0.51 0.51 61 1097.5
20260902211017 21 242 4.8 6.4 0.00 0.51 0.51 60 1096.7
20260902210017 21 239 4.8 6.4 0.00 0.51 0.51 60 1096.0
20260902205017 21 235 4.8 6.4 0.00 0.51 0.51 59 1095.3
20260902204016 21 231 6.4 6.4 0.00 0.51 0.51 59 1094.5
20260902203037 21 227 6.4 6.4 0.00 0.51 0.51 58 1093.8
20260902202017 21 224 6.4 8.0 0.00 0.51 0.51 57 1093.0
20260902201017 21 220 6.4 8.0 0.00 0.51 0.51 57 1092.3
20260902200017 21 216 6.4 8.0 0.00 0.51 0.51 56 1091.5
20260902195018 16 0.0 0.0 0.00 0.00 0.00 78 1020.9
20260902194037 21 208 6.4 8.0 0.00 0.51 0.51 55 1090.0
20260902193017 20 204 6.4 8.0 0.00 0.51 0.51 54 1089.2
20260902192017 20 201 6.4 8.0 0.00 0.51 0.51 53 1088.4
20260902191017 20 197 8.0 8.0 0.00 0.51 0.51 53 1087.7
20260902190037 20 193 8.0 9.7 0.00 0.51 0.51 52 1086.9
20260902185037 20 189 8.0 9.7 0.00 0.51 0.51 51 1086.1
20260902184037 20 185 8.0 9.7 0.00 0.51 0.51 51 1085.3
20260902183017 19 181 8.0 9.7 0.00 0.51 0.51 50 1084.6
20260902182017 19 177 8.0 9.7 0.00 0.51 0.51 49 1083.8
20260902181017 18 173 8.0 9.7 0.00 0.51 0.51 49 1083.0
20260902180017 18 169 8.0 9.7 0.00 0.51 0.51 48 1082.2
20260902175017 18 165 8.0 11.3 0.00 0.51 0.51 48 1081.5